Dewpoint
53 53 54 55 56 56 56 56 56 57 57 57 57 57 57 58 56 30 16 31 37 58 59 37 34 36 36 27 17 16 11 10 17 13 14 15 15 16 18 17 16 18 18 17 23
53 53 53 54 55 56 56 56 56 57 57 57 57 57 58 58 43 22 43 53 56 59 35 34 30 32 19 17 15 12 9 16 12 14 18 16 16 15 15 15 16 17 18 19 20
54 54 54 54 55 55 56 56 56 56 57 57 57 57 58 56 20 21 56 59 59 56 39 38 35 22 17 16 17 11 11 12 16 18 18 16 16 17 16 15 16 16 17 19 19
53 54 55 55 56 56 56 56 56 56 56 56 57 58 58 42 18 21 60 61 60 50 32 24 22 19 18 18 19 24 16 19 19 19 18 18 17 18 16 16 17 17 19 19 19
53 54 55 55 56 56 56 56 56 56 56 56 57 58 46 24 25 25 58 53 37 33 25 24 22 20 27 20 19 21 19 20 21 21 19 18 18 17 16 17 19 19 19 20 20
53 53 54 55 55 56 56 56 55 55 56 56 57 58 33 23 26 28 29 30 31 27 24 24 27 22 21 20 23 21 21 22 22 19 19 17 17 16 15 18 19 20 20 20 21
53 53 54 54 55 55 56 56 55 55 55 57 57 49 36 27 32 28 29 30 31 28 24 25 24 23 23 23 24 23 21 19 17 16 14 16 15 14 17 19 20 21 20 21 22
53 53 53 54 54 55 56 55 55 55 55 56 57 47 38 40 35 27 30 26 25 25 26 26 25 24 24 24 23 21 18 13 14 15 15 17 15 17 19 19 21 22 22 23 23
53 53 53 54 54 55 55 55 55 55 56 55 43 30 26 39 26 28 25 23 24 23 26 25 25 24 24 21 16 16 16 17 12 13 14 20 17 19 21 22 22 23 24 23 23
53 53 53 53 54 54 54 53 54 53 54 51 40 25 25 25 26 26 26 26 23 23 21 20 21 19 18 16 14 15 13 13 12 15 17 19 19 20 22 24 24 24 24 23 29
52 53 53 53 54 54 47 33 29 28 30 32 30 31 30 29 23 22 26 23 22 20 18 20 16 15 16 17 17 17 14 12 16 18 19 19 20 21 23 24 24 29 33 37 40
52 52 53 53 54 53 43 32 30 30 28 29 29 32 33 32 26 21 23 20 21 17 21 18 14 17 18 19 18 18 19 18 19 20 20 21 21 22 23 24 30 37 39 41 41
52 52 53 53 53 43 37 35 36 32 28 29 31 30 28 30 26 21 21 20 19 19 19 17 15 20 19 19 19 19 19 19 18 22 23 21 18 21 22 30 38 41 42 42 42
52 52 53 53 41 37 35 38 38 34 34 35 30 28 21 20 21 22 22 20 21 17 19 18 19 19 19 19 20 19 21 21 21 22 16 20 13 19 24 29 38 41 42 43 42
52 53 53 49 35 35 37 39 39 38 23 32 24 22 18 18 17 19 24 21 19 18 19 18 19 19 19 20 25 21 24 23 22 21 21 20 20 23 29 31 37 41 43 44 44
52 52 52 46 41 42 40 40 40 32 27 24 17 15 14 17 24 21 24 23 23 21 23 19 22 22 21 26 26 26 23 22 22 20 16 19 22 20 23 32 39 42 43 44 44
51 51 48 43 34 38 39 37 32 27 26 17 16 15 20 25 26 27 25 23 22 20 21 23 22 25 26 23 25 24 21 18 15 13 12 22 23 23 26 39 41 42 43 43 44
50 50 47 42 37 40 37 32 28 29 21 22 18 19 24 27 27 28 26 25 27 23 22 21 21 25 26 23 22 25 22 17 15 15 15 21 20 22 33 41 43 44 45 44 43
49 48 46 46 43 37 30 29 22 25 21 20 19 20 22 26 26 26 26 26 27 27 26 24 23 26 26 26 25 23 22 23 22 23 20 21 23 26 39 38 41 42 43 42 43
46 47 44 41 41 37 29 31 30 31 28 22 20 25 21 23 25 25 25 29 30 31 28 27 25 28 28 29 27 24 25 23 24 17 18 22 21 22 30 36 38 37 38 41 41
42 39 42 41 39 38 32 33 32 30 30 26 23 23 23 27 27 26 25 29 34 34 32 26 27 27 28 26 26 27 25 27 29 27 21 21 19 30 35 36 36 39 36 38 40
40 32 41 35 28 33 28 30 35 31 33 32 27 27 28 30 28 28 27 29 38 35 30 33 28 26 27 29 30 28 27 28 24 20 26 23 25 29 31 36 39 35 38 38 39
41 41 44 35 26 24 30 31 33 33 34 30 30 32 31 29 24 30 32 36 38 34 32 34 27 24 21 20 26 26 30 29 28 27 24 25 23 29 30 30 35 39 37 38 38
37 31 35 34 32 30 30 30 31 34 32 32 32 33 31 29 30 29 31 34 37 36 39 39 30 27 19 19 25 27 27 28 30 28 27 27 26 28 30 32 34 39 39 39 39
38 35 36 27 25 32 32 32 31 31 32 33 32 33 32 29 29 30 32 33 34 36 35 31 26 28 30 30 28 28 28 29 29 30 30 29 30 33 36 36 36 39 38 36 37
37 35 38 34 34 32 33 32 34 34 32 32 31 33 32 30 30 30 32 31 31 32 30 31 24 28 28 30 33 32 32 31 31 31 32 32 33 38 39 41 39 37 37 37 38
40 40 38 31 34 30 32 34 34 34 34 35 34 32 31 32 35 34 34 33 33 31 29 26 25 31 26 32 31 25 29 32 32 34 35 34 36 39 37 37 36 37 38 38 38
Lifted_Index
14 14 14 13 13 12 12 13 13 12 12 12 12 12 11 11 12 12 12 12 11 11 10 11 11 11 11 11 11 10 8 7 7 8 9 10 11 10 10 9 9 9 10 10 10
14 14 14 14 13 13 13 13 13 12 12 12 12 12 11 11 12 12 12 12 11 11 11 11 11 11 11 11 11 10 8 8 9 10 10 11 11 11 10 9 9 9 10 10 10
14 14 14 14 13 13 13 13 13 12 12 12 12 11 11 11 11 12 12 12 11 11 12 12 11 11 10 10 10 10 9 10 11 11 11 11 11 10 10 9 9 9 9 10 10
14 14 14 14 13 13 13 13 13 12 12 12 11 11 11 11 11 11 12 11 11 11 12 11 11 10 10 10 10 9 10 10 10 10 10 10 10 10 10 10 10 10 9 9 9
15 14 14 14 13 13 13 13 12 12 12 11 11 11 11 11 11 11 11 11 11 11 11 11 10 10 9 9 9 9 9 9 9 9 9 9 9 9 9 9 10 10 9 9 9
14 14 14 14 13 13 13 13 12 12 11 11 10 10 10 10 11 11 11 11 11 11 10 10 10 9 9 9 9 8 8 8 8 9 9 8 8 8 9 9 9 9 9 9 9
14 14 14 13 13 13 13 13 12 12 11 11 10 10 10 10 11 11 11 11 11 10 10 10 9 9 9 8 8 8 7 7 7 7 8 7 6 7 8 9 9 8 9 9 9
14 14 13 13 13 13 12 12 12 12 12 11 10 9 9 10 10 11 11 11 11 10 10 10 9 9 9 8 7 6 5 4 5 6 7 6 5 6 8 8 8 8 8 9 9
14 13 13 13 12 12 11 11 11 11 11 11 10 10 10 10 10 10 10 10 10 10 10 10 10 9 8 7 6 5 4 3 4 6 7 6 5 6 8 8 8 8 8 8 8
14 13 13 12 11 10 10 9 10 10 10 10 10 9 10 10 10 10 10 10 10 10 10 9 9 8 8 7 5 5 4 4 5 6 7 6 6 7 7 7 7 7 7 6 6
14 13 12 11 10 10 9 9 9 9 9 9 9 9 9 9 10 10 10 10 9 9 9 9 8 7 8 8 7 7 6 5 6 7 7 6 6 7 7 7 6 6 5 5 5
13 13 12 11 10 9 9 9 9 8 8 8 9 9 9 9 9 9 9 9 9 8 8 8 7 7 8 8 8 8 7 6 7 7 7 6 6 6 6 6 5 5 5 4 4
13 13 12 10 9 9 9 9 9 8 7 7 8 8 9 8 9 9 9 9 8 8 7 7 7 7 8 8 7 7 6 6 6 7 6 6 5 5 6 5 5 4 4 4 4
12 12 11 9 8 8 9 9 8 7 5 6 7 8 8 8 8 8 8 8 8 8 7 7 7 7 7 7 7 6 6 7 7 6 5 5 4 4 5 5 4 4 3 3 3
11 11 10 9 8 8 9 9 8 5 4 5 7 7 8 8 8 8 8 8 8 7 7 7 7 7 7 7 6 6 6 7 7 6 5 4 4 4 5 5 4 3 3 3 3
10 10 10 8 8 8 8 8 6 4 3 5 7 7 7 8 8 8 8 8 8 7 7 7 7 7 7 6 6 6 6 6 5 4 4 4 4 4 5 4 3 3 3 3 3
9 9 9 8 8 8 8 7 5 4 4 5 6 6 7 7 8 8 8 8 7 7 6 6 6 6 6 6 6 6 5 4 2 2 2 4 4 4 4 4 3 2 2 3 3
8 8 7 7 7 8 8 6 5 5 5 6 6 6 6 7 8 7 7 7 7 6 6 5 5 6 6 5 5 5 4 3 2 1 2 3 4 4 3 3 2 2 2 3 3
7 6 6 6 7 8 8 7 6 6 6 6 6 6 6 7 7 7 7 6 6 6 5 4 5 5 5 5 4 4 4 3 3 2 2 2 3 3 3 2 2 2 2 2 3
7 6 5 6 7 7 7 7 7 7 7 6 6 6 6 6 6 6 6 6 6 5 5 5 5 5 5 4 4 4 4 3 3 2 1 2 3 3 2 1 1 2 2 2 2
7 6 5 6 7 7 7 7 7 7 7 7 7 6 6 6 6 6 6 5 5 5 5 5 5 5 5 5 4 4 3 3 2 2 1 1 2 3 2 2 2 2 2 2 2
7 6 6 6 7 7 7 7 8 8 8 7 7 7 7 6 6 6 5 5 5 5 5 5 5 4 4 5 4 4 3 2 2 2 2 1 2 2 2 2 2 2 2 1 1
7 7 7 7 7 7 7 8 8 8 8 7 7 7 7 6 6 6 5 5 5 5 5 5 5 4 4 5 4 4 3 2 2 2 1 1 1 2 1 1 1 1 2 1 1
7 7 8 8 7 8 8 8 8 8 8 8 7 7 7 6 6 6 6 6 5 5 5 5 5 4 4 4 4 3 2 2 1 1 1 1 1 1 1 1 1 1 1 1 0
8 8 9 9 8 8 8 8 7 8 8 8 7 7 7 7 6 6 6 6 6 6 6 5 5 5 4 3 3 2 2 1 1 1 0 1 1 1 1 0 0 0 1 1 0
9 10 10 10 9 9 9 8 8 8 8 8 8 8 8 7 7 7 7 7 7 7 7 6 5 5 4 3 2 2 2 1 0 0 0 0 0 0 0 0 0 1 1 1 1
11 11 11 10 10 9 9 8 8 9 9 8 8 8 8 8 8 8 8 8 8 7 7 6 5 4 3 3 2 2 1 1 -0 -0 -0 -0 -0 0 0 1 1 1 1 1 2